Back to catalog

COSMOS 2251 DEB

AliveLEO
NORAD 34784·DEBRIS·🇷🇺 Russia

Launched Jun 16, 1993 from Plesetsk Cosmodrome

Loading…

Next Passes (next 24 hours)

TLE

FreshSource: Space-Track

Epoch: Sep 14, 2026, 03:32 UTC

1 34784U 93036AAM 26257.14784527  .00001051  00000-0  21269-3 0  9997
2 34784  74.0065 156.6671 0051166 256.3821 103.1644 14.61871309925586

Track COSMOS 2251 DEB in real time with AllMySat

Download on the App Store